Total_Precipitation_Accumulation
2.70 3.36 4.60 4.43 3.80 3.14 2.94 3.09 3.16 2.97 2.87 2.87 2.94 2.94 2.98 3.06 3.17 3.18 3.03 3.12 3.17 3.21 3.08 2.88 2.73 2.66 2.67 2.66 2.55 2.33 2.13 1.97 2.09 2.20 2.29 2.45 2.64 2.81 2.96 3.14 3.07 2.39 2.25
2.11 3.02 4.20 4.02 3.38 2.70 2.72 2.71 2.87 2.76 2.65 2.73 2.89 2.79 2.66 2.76 2.98 3.05 2.97 3.14 3.16 3.18 3.00 2.80 2.53 2.29 2.25 2.22 2.25 2.09 1.96 2.16 2.47 2.68 2.95 3.00 3.07 3.07 3.08 3.17 3.24 2.59 2.30
1.82 2.43 3.24 3.56 2.95 2.58 2.54 2.43 2.56 2.54 2.47 2.70 2.89 2.81 2.64 2.65 2.93 3.04 3.01 3.09 3.27 3.21 2.82 2.61 2.35 2.03 1.97 2.00 1.97 1.96 2.04 2.35 2.94 3.37 3.47 3.03 2.60 2.89 2.98 3.08 2.97 2.41 2.23
1.55 1.89 2.41 2.86 2.51 2.34 2.27 2.34 2.44 2.43 2.41 2.56 2.66 2.76 2.74 2.72 2.97 3.17 3.09 3.19 3.38 3.09 2.74 2.48 2.22 1.89 1.76 1.81 1.91 1.99 2.17 2.56 3.05 3.58 3.34 2.75 2.27 2.49 2.62 2.53 2.44 2.21 2.08
1.44 1.69 2.11 2.28 2.22 2.18 2.17 2.34 2.47 2.48 2.42 2.51 2.65 2.76 2.86 2.96 3.05 3.25 3.24 3.33 3.39 3.28 2.89 2.50 2.23 1.92 1.77 1.75 1.78 1.94 2.25 2.72 3.15 3.23 2.62 2.60 2.70 2.59 2.40 2.27 2.29 2.07 1.81
1.49 1.73 1.93 2.05 2.02 2.12 2.13 2.36 2.53 2.62 2.51 2.51 2.70 2.70 2.79 3.03 3.27 3.49 3.48 3.49 3.56 3.36 2.87 2.49 2.19 1.95 1.76 1.71 1.82 1.97 2.39 2.82 2.83 2.30 2.08 2.20 2.14 2.38 2.27 2.21 2.10 1.86 1.58
1.44 1.77 1.89 2.04 2.08 2.26 2.42 2.58 2.67 2.66 2.51 2.48 2.55 2.46 2.58 3.02 3.36 3.54 3.60 3.59 3.55 3.30 2.82 2.44 2.15 1.93 1.79 1.81 1.91 1.95 2.26 2.62 2.31 1.96 1.83 2.02 1.86 2.00 2.14 2.15 2.07 1.77 1.50
1.29 1.65 1.88 2.21 2.29 2.35 2.53 2.87 2.98 2.73 2.60 2.53 2.56 2.44 2.51 2.78 3.19 3.41 3.63 3.65 3.45 3.19 2.72 2.42 2.15 1.92 1.88 1.93 2.00 1.99 2.13 2.13 1.74 1.61 1.61 1.64 1.63 1.76 2.00 1.90 1.83 1.66 1.43
1.33 1.48 1.78 2.18 2.42 2.54 2.66 2.92 2.99 2.94 2.85 2.77 2.73 2.56 2.60 2.78 3.02 3.32 3.65 3.60 3.43 3.22 2.82 2.50 2.23 2.03 2.01 1.98 2.00 1.99 2.10 2.22 1.80 1.69 1.61 1.60 1.56 1.62 1.89 1.77 1.66 1.62 1.53
1.61 1.50 1.62 1.98 2.40 2.52 2.58 2.86 3.03 2.94 2.89 2.88 2.91 2.77 2.96 3.10 3.11 3.25 3.54 3.68 3.50 3.25 2.89 2.70 2.45 2.29 2.26 2.06 2.01 2.15 2.31 2.14 1.79 1.83 1.77 1.36 1.37 1.62 1.95 1.97 1.87 1.86 1.72
1.84 1.84 1.87 1.85 1.96 2.19 2.30 2.59 3.16 3.13 3.01 3.03 3.22 3.33 3.53 3.82 3.77 3.82 3.71 3.88 3.86 3.56 3.39 3.16 2.93 2.61 2.50 2.24 2.33 2.44 2.23 2.02 2.17 2.12 1.73 1.33 1.40 1.95 2.21 2.22 2.08 2.06 2.01
1.95 2.00 2.25 2.09 1.96 2.06 2.10 2.90 3.77 3.64 3.45 3.49 3.68 3.76 4.08 4.24 4.53 3.99 4.26 4.57 4.68 4.57 4.40 4.18 4.03 3.36 2.62 2.22 2.43 2.52 2.12 2.09 2.28 2.07 1.64 1.50 1.65 2.17 2.46 2.28 2.19 2.16 2.11
2.24 2.11 2.09 2.22 2.32 2.38 2.54 2.90 3.39 3.84 3.88 3.88 3.84 3.83 4.09 4.02 4.22 4.26 4.65 5.41 5.53 4.99 4.60 4.74 4.54 3.59 3.07 3.10 2.88 2.58 2.48 2.23 2.29 2.04 1.81 1.80 1.90 2.29 2.59 2.44 2.36 2.28 2.07
2.82 2.79 2.81 2.80 2.85 2.90 2.78 2.79 2.92 3.21 3.28 3.27 3.42 3.51 3.66 4.01 4.18 4.35 4.71 4.79 4.88 4.70 4.96 4.87 4.71 4.07 3.69 3.34 3.02 2.98 2.98 2.65 2.47 2.38 2.38 2.23 2.23 2.47 2.78 2.75 2.54 2.46 2.36
3.32 3.52 4.14 4.10 3.60 3.36 3.18 3.06 2.78 3.00 2.84 2.65 2.85 3.17 3.29 3.53 3.90 4.13 4.04 4.07 3.81 4.03 4.40 4.56 4.13 4.16 3.96 3.83 3.61 3.35 3.34 3.04 2.75 2.64 2.74 2.79 2.63 2.57 2.83 2.98 2.88 2.87 2.93
4.05 4.11 4.39 4.94 4.36 3.77 3.31 3.19 3.00 2.81 2.87 2.74 2.86 2.81 3.10 3.32 3.47 3.61 3.54 3.66 3.55 3.68 3.85 3.87 3.84 4.19 4.16 3.99 3.62 3.30 3.19 3.17 2.96 2.76 2.96 2.98 2.90 2.61 2.68 3.10 3.37 3.40 3.49
4.58 4.76 4.89 5.21 4.95 4.54 4.02 3.52 3.11 2.92 2.73 2.81 2.96 2.74 2.82 3.04 3.14 3.18 3.25 3.28 3.36 3.31 3.41 3.44 3.50 3.83 3.94 3.85 3.62 3.33 3.16 3.19 3.08 3.01 2.92 3.01 2.92 2.86 2.76 2.91 3.22 3.37 3.68
5.25 5.53 5.59 5.31 5.37 5.11 4.56 4.05 3.63 3.43 3.19 3.00 2.85 2.70 2.50 2.59 2.64 2.79 2.76 2.75 2.84 2.84 2.98 3.25 3.30 3.57 3.86 3.94 3.90 3.52 3.41 3.35 3.12 3.15 3.02 3.00 3.27 2.97 3.16 3.28 3.24 3.20 3.62
6.41 6.86 6.64 5.99 5.66 5.27 4.82 4.42 4.29 4.16 3.84 3.42 3.17 2.94 2.78 2.55 2.49 2.61 2.73 2.80 2.49 2.58 2.76 2.67 3.11 3.40 3.75 3.82 3.36 3.40 3.20 3.13 3.13 2.90 2.98 2.88 3.09 3.18 3.39 3.38 3.38 3.24 3.61
6.70 7.42 7.33 6.67 5.90 5.29 5.02 4.73 4.70 4.46 4.07 3.57 3.36 3.21 2.89 2.76 2.56 2.68 2.56 2.42 2.21 2.44 2.81 2.99 3.45 3.51 3.48 3.49 2.89 3.11 2.92 2.61 2.71 2.87 2.74 2.82 2.85 2.67 3.01 3.39 3.61 3.11 3.46
5.73 6.28 6.18 5.58 5.14 4.69 4.27 3.82 3.88 3.80 3.56 3.32 3.11 2.91 2.90 2.84 2.71 2.79 2.52 2.70 2.36 2.43 2.58 2.73 3.08 3.29 3.26 3.23 3.52 3.55 3.08 2.61 2.60 2.55 2.45 2.72 2.74 2.72 3.10 3.59 3.75 3.58 3.14
4.23 4.45 3.95 3.78 3.81 3.52 3.38 3.41 3.39 3.29 3.00 2.85 2.88 3.11 2.79 2.80 2.69 2.50 2.67 2.48 2.43 2.67 2.71 2.85 3.12 3.25 3.22 3.28 3.48 3.82 3.55 3.45 2.89 2.17 2.39 2.54 2.65 2.89 2.91 3.04 3.38 3.71 3.32
3.00 2.98 2.76 2.73 3.07 3.11 3.20 3.29 3.31 3.31 3.14 2.98 2.84 3.01 2.73 2.55 2.51 2.57 2.51 2.58 2.75 2.45 2.72 2.93 2.97 3.22 3.33 3.21 3.18 3.62 3.62 3.54 3.02 2.38 2.24 2.30 2.52 2.83 2.84 2.94 2.74 3.02 3.26
2.10 2.22 2.48 2.58 2.75 2.72 2.90 2.88 2.81 2.61 2.52 2.47 2.47 2.65 2.75 2.50 2.37 2.39 2.52 2.85 2.99 2.73 2.96 2.52 2.71 3.06 3.28 3.21 3.23 3.02 2.88 2.95 3.14 3.01 2.56 2.30 2.42 2.53 2.62 2.63 2.73 3.00 3.19
1.81 2.04 2.38 2.50 2.55 2.49 2.50 2.64 2.85 2.78 2.80 2.70 2.66 2.94 2.98 3.01 2.79 2.47 2.47 2.76 2.95 2.96 3.06 2.90 3.11 2.91 2.85 2.87 2.98 2.99 2.93 2.78 2.57 2.78 2.82 2.64 2.49 2.19 2.14 2.20 2.37 2.56 2.63
1.75 1.84 2.06 2.21 2.41 2.45 2.50 2.61 2.66 2.73 2.92 2.92 2.91 2.80 2.67 2.80 2.79 2.53 2.51 2.85 2.89 2.93 3.11 2.99 2.96 2.83 2.85 2.87 2.77 2.68 2.95 2.92 2.72 2.81 2.57 2.54 2.47 1.99 1.83 1.91 1.99 2.11 2.28